This is the latest recevied weather packets stored in our database for station/object N2OCK. If no packets are shown the sender has not sent any weather packets the latest 10 day(s).
| Time | Temp. | Humidity | Pressure | Rain* | Wind** | Luminosity | Snow |
|---|---|---|---|---|---|---|---|
| 1777732318 | 12.22° C | 80% | 1012.1 hPa | 0 mm | - | 194 W/m² | - |
| 1777732015 | 12.22° C | 80% | 1012.3 hPa | 0 mm | - | 214 W/m² | - |
| 1777731712 | 12.22° C | 82% | 1012.3 hPa | 0 mm | - | 248 W/m² | - |
| 1777731409 | 12.22° C | 81% | 1012.4 hPa | 0 mm | - | 182 W/m² | - |
| 1777731106 | 12.22° C | 82% | 1012.4 hPa | 0 mm | - | 173 W/m² | - |
| 1777730805 | 11.67° C | 82% | 1012.5 hPa | 0 mm | - | 173 W/m² | - |
| 1777730501 | 11.67° C | 82% | 1012.3 hPa | 0 mm | - | 162 W/m² | - |
| 1777730197 | 11.67° C | 82% | 1012.3 hPa | 0 mm | - | 123 W/m² | - |
| 1777729895 | 11.67° C | 82% | 1012.4 hPa | 0 mm | - | 111 W/m² | - |
| 1777729591 | 11.67° C | 82% | 1012.4 hPa | 0 mm | - | 142 W/m² | - |
| 1777729287 | 12.22° C | 82% | 1012.4 hPa | 0 mm | - | 178 W/m² | - |
| 1777728984 | 12.22° C | 83% | 1012.4 hPa | 0 mm | - | 211 W/m² | - |
| 1777728681 | 12.22° C | 83% | 1012.4 hPa | 0 mm | - | 211 W/m² | - |
| 1777728378 | 12.22° C | 86% | 1012.5 hPa | 0 mm | - | 260 W/m² | - |
| 1777728075 | 11.67° C | 88% | 1012.5 hPa | 0 mm | - | 226 W/m² | - |
| 1777727772 | 11.11° C | 87% | 1012.5 hPa | 0 mm | - | 227 W/m² | - |
| 1777727469 | 11.67° C | 88% | 1012.3 hPa | 0 mm | - | 161 W/m² | - |
| 1777727166 | 11.11° C | 89% | 1012.5 hPa | 0 mm | - | 134 W/m² | - |
| 1777726864 | 11.11° C | 89% | 1012.5 hPa | 0 mm | - | 188 W/m² | - |
| 1777726560 | 11.11° C | 90% | 1012.4 hPa | 0 mm | - | 157 W/m² | - |
| 1777726257 | 11.11° C | 91% | 1012.4 hPa | 0 mm | - | 179 W/m² | - |
| 1777725954 | 11.11° C | 91% | 1012.6 hPa | 0 mm | - | 196 W/m² | - |
| 1777725651 | 10.56° C | 91% | 1012.4 hPa | 0 mm | - | 176 W/m² | - |
| 1777725349 | 10.56° C | 92% | 1012.2 hPa | 0 mm | - | 122 W/m² | - |
| 1777725046 | 10.56° C | 92% | 1012.3 hPa | 0 mm | - | 91 W/m² | - |
* Rain latest hour (hover to see other rain measurements)
** Current wind speed in m/s (hover to see current wind gust speed)